Estación Meteorológica Peña el Pijo (Robertgarden) [ 07/23/19 00:04:28 CEST ]

Fecha Hora Presion(HPa) Temp (°C) Humedad % Rocio (°C) Viento ( m/s) Direccion Lluvia 1Hora(mm) Lluvia 24H(mm) LLuvia Total(mm)
2019-Jul-10 01:09:00 1010.000 - - - - NNW     342.62
2019-Jul-10 02:09:15 1009.700 - - - - NNW     342.62
2019-Jul-10 03:10:09 1009.500 - - - - NNW     342.62
2019-Jul-10 04:09:40 1009.200 - - - - NNW     342.62
2019-Jul-10 05:10:00 1009.500 - - - - NNW     342.62
2019-Jul-10 06:09:42 1009.500 - - - - NNW     342.62
2019-Jul-10 07:09:09 1009.700 - - - - NNW     342.62
2019-Jul-10 08:08:53 1009.700 - - - - NNW     342.62
2019-Jul-10 09:09:19 1009.800 - - - - NNW     342.62
2019-Jul-10 10:09:03 1009.700 - - - - NNW     342.62
2019-Jul-10 11:09:38 1009.600 - - - - NNW     342.62
2019-Jul-10 12:09:39 1009.700 - - - - NNW     342.62
2019-Jul-10 13:09:16 1009.600 - - - - NNW     342.62
2019-Jul-10 14:09:23 1009.200 - - - - NNW     342.62
2019-Jul-10 15:09:17 1009.000 - - - - NNW     342.62
2019-Jul-10 16:09:16 1008.600 - - - - NNW     342.62
2019-Jul-10 17:09:22 1008.200 - - - - NNW     342.62
2019-Jul-10 18:09:13 1008.200 - - - - NNW     342.62
2019-Jul-10 19:09:09 1007.800 - - - - NNW     342.62
2019-Jul-10 20:09:32 1008.200 - - - - NNW     342.62
2019-Jul-10 21:09:17 1008.600 - - - - NNW     342.62
2019-Jul-10 22:09:21 1009.300 - - - - NNW     342.62
2019-Jul-10 23:09:24 1010.000 - - - - NNW     342.62

Temperatura Máxima:    Temperatura Mínima:
Presión Máxima:1010.000 Hpa    Presión Mínima:1007.800 Hpa


Volver